Location: Sungai Bunut
(2.6333°N, 113.7333°E)
Time: 17:18:16
(UTC+00:00)

Transit 4A - Pass Details

Date: 04 December 2023
Orbit: 869 x 974 km, 66.8° (Epoch: 20 February)

Event Time Altitude Azimuth Distance (km) Brightness Sun altitude
Rises 23:42:37 0° 320° (NW) 3,483 10.4 19.0°
Reaches altitude 10° 23:45:27 10° 309° (NW) 2,532 9.7 19.7°
Maximum altitude 23:50:22 28° 251° (WSW) 1,571 8.9 20.8°
Drops below altitude 10° 23:55:15 10° 193° (SSW) 2,511 10.4 21.9°
Sets 23:58:04 0° 182° (S) 3,449 11.2 22.5°
